1513807201.1,50372,6.81,73408.5,-16.19,-19.99,-20.73,0,*62
1513807202.34,50373,6.81,73404.3,-16.21,-20.15,-20.59,0,*6E
1513807203.56,50374,6.75,73408.5,-16.19,-20.09,-20.43,0,*64
1513807204.8,50375,6.75,73416.8,-16.21,-19.81,-20.15,0,*67
1513807206.06,50376,6.75,73408.5,-16.19,-19.81,-19.85,0,*6C
1513807207.27,50377,6.81,73400.5,-16.21,-19.07,-19.03,0,*66
1513807208.54,50378,6.81,73396.5,-16.21,-18.31,-18.31,0,*6D
1513807209.82,50379,6.75,73396.5,-16.19,-17.97,-17.97,0,*67
1513807211.04,50380,6.75,73394.3,-16.19,-17.69,-17.83,0,*65
1513807212.27,50381,6.75,73396.5,-16.19,-17.69,-17.83,0,*64
1513807213.52,50382,6.81,73398.5,-16.19,-17.83,-17.97,0,*66
1513807214.8,50383,6.75,73394.3,-16.19,-17.97,-18.31,0,*61
1513807216.06,50384,6.75,73392.8,-16.19,-18.59,-18.89,0,*68
1513807217.29,50385,6.75,73390.3,-16.21,-18.93,-19.03,0,*67
1513807218.54,50386,6.75,73390.8,-16.19,-18.93,-19.03,0,*6F
1513807219.81,50387,6.75,73388.3,-16.17,-19.51,-19.65,0,*6F
1513807221.06,50388,6.75,73388.3,-16.19,-19.57,-19.71,0,*6D
1513807222.31,50389,6.81,73382.0,-16.19,-19.65,-19.95,0,*67
1513807223.56,50390,6.81,73386.8,-16.21,-19.81,-19.81,0,*6B
1513807224.81,50391,6.81,73390.5,-16.19,-19.71,-19.85,0,*6A
1513807226.07,50392,6.81,73388.3,-16.19,-19.51,-19.57,0,*64
1513807227.32,50393,6.75,73388.3,-16.17,-19.37,-19.95,0,*65
1513807228.59,50394,6.75,73390.5,-16.19,-19.41,-19.85,0,*6C
1513807229.84,50395,6.75,73388.0,-16.19,-19.07,-19.41,0,*67
1513807231.08,50396,6.81,73382.5,-16.19,-18.79,-19.23,0,*68
1513807232.3,50397,6.75,73388.0,-16.19,-18.65,-19.03,0,*66
1513807233.53,50398,6.81,73398.5,-16.21,-18.45,-18.93,0,*68
1513807234.77,50399,6.75,73406.3,-16.19,-18.49,-19.23,0,*64
1513807236.02,50400,6.81,73414.0,-16.19,-18.73,-19.41,0,*6E
1513807237.27,50401,6.81,73408.3,-16.19,-19.37,-20.35,0,*67
1513807238.54,50402,6.75,73400.0,-16.19,-19.85,-20.79,0,*65
1513807239.79,50403,6.75,73394.5,-16.19,-20.19,-20.89,0,*64
1513807241.04,50404,6.75,73388.0,-16.19,-20.35,-20.89,0,*6D
1513807242.26,50405,6.81,73396.0,-16.19,-20.63,-21.09,0,*66
1513807243.5,50406,6.81,73398.3,-16.19,-20.63,-20.79,0,*63
1513807244.73,50407,6.81,73398.3,-16.19,-20.59,-20.73,0,*61
1513807245.99,50408,6.81,73392.5,-16.19,-20.79,-20.89,0,*69
1513807247.25,50409,6.75,73398.0,-16.19,-20.79,-20.79,0,*67
1513807248.48,50410,6.75,73402.8,-16.19,-20.43,-20.73,0,*6C
1513807249.72,50411,6.75,73404.5,-16.21,-20.35,-20.63,0,*66
1513807250.96,50412,6.75,73396.0,-16.21,-19.37,-18.31,0,*61
1513807252.23,50413,6.81,73410.3,-16.21,-19.57,-18.35,0,*62
1513807253.44,50414,6.75,73406.5,-16.21,-19.51,-18.49,0,*68
1513807254.68,50415,6.81,73404.3,-16.21,-19.57,-18.49,0,*6F
1513807255.91,50416,6.81,73404.3,-16.21,-19.71,-18.59,0,*69
1513807257.14,50417,6.75,73406.5,-16.21,-19.41,-18.45,0,*66
1513807258.37,50418,6.75,73408.8,-16.21,-19.41,-18.49,0,*65
1513807259.64,50419,6.75,73414.3,-16.21,-19.41,-18.31,0,*6B
1513807260.91,50420,6.81,73408.8,-16.23,-19.37,-18.35,0,*66
1513807262.15,50421,6.81,73412.3,-16.23,-19.51,-18.65,0,*62
1513807263.41,50422,6.75,73412.0,-16.27,-19.61,-18.79,0,*6B
1513807264.7,50423,6.75,73410.3,-16.23,-19.57,-18.59,0,*69
1513807265.92,50424,6.75,73416.8,-16.21,-19.13,-18.45,0,*61
1513807267.16,50425,6.81,73412.0,-16.23,-18.73,-18.11,0,*64
1513807268.43,50426,6.75,73406.3,-16.23,-18.89,-18.11,0,*62
1513807269.69,50427,6.75,73396.0,-16.23,-18.93,-18.21,0,*6B
1513807270.96,50428,6.75,73400.0,-16.23,-19.07,-18.35,0,*6D
1513807272.23,50429,6.81,73404.5,-16.27,-19.27,-18.49,0,*61
1513807273.53,50430,6.75,73404.3,-16.27,-19.31,-18.55,0,*63
1513807274.77,50431,6.75,73406.8,-16.23,-19.13,-18.45,0,*67
1513807276.05,50432,6.75,73392.8,-16.23,-19.13,-18.35,0,*63
1513807277.31,50433,6.75,73396.3,-16.23,-18.89,-18.11,0,*66
1513807278.58,50434,6.81,73404.0,-16.23,-18.45,-18.01,0,*60
1513807279.84,50435,6.75,73396.3,-16.23,-18.21,-17.97,0,*63
1513807281.12,50436,6.81,73398.5,-16.27,-18.35,-17.87,0,*60
1513807282.41,50437,6.75,73394.3,-16.23,-18.35,-18.01,0,*64
1513807283.62,50438,6.75,73400.8,-16.21,-18.21,-18.11,0,*6D
1513807284.91,50439,6.81,73410.0,-16.23,-18.59,-18.31,0,*63
1513807286.12,50440,6.81,73408.8,-16.21,-18.79,-18.21,0,*6C
1513807287.38,50441,6.81,73404.8,-16.23,-18.89,-18.21,0,*60
1513807288.65,50442,6.81,73404.3,-16.23,-18.45,-18.01,0,*61
1513807289.91,50443,6.81,73398.8,-16.21,-18.35,-18.01,0,*65
1513807291.18,50444,6.81,73396.5,-16.23,-18.73,-18.31,0,*61
1513807292.44,50445,6.81,73406.3,-16.23,-18.93,-18.49,0,*61
1513807293.71,50446,6.81,73402.5,-16.23,-19.23,-18.79,0,*6B
1513807294.96,50447,6.81,73402.8,-16.23,-19.41,-19.07,0,*66
1513807296.2,50448,6.75,73400.5,-16.23,-19.51,-19.03,0,*6C
1513807297.46,50449,6.75,73396.8,-16.23,-19.37,-19.23,0,*6F
1513807298.73,50450,6.75,73402.0,-16.27,-19.07,-18.93,0,*6A
1513807299.97,50451,6.75,73398.3,-16.27,-18.65,-18.49,0,*69
1513807301.24,50452,6.81,73410.5,-16.23,-18.45,-18.31,0,*63
1513807302.54,50453,6.75,73408.5,-16.23,-18.31,-18.31,0,*61
1513807303.77,50454,6.81,73408.3,-16.23,-18.45,-18.45,0,*66
1513807305.04,50455,6.75,73396.8,-16.23,-18.59,-18.49,0,*66
1513807306.3,50456,6.81,73398.8,-16.23,-18.65,-18.35,0,*61
1513807307.57,50457,6.81,73406.5,-16.23,-18.49,-18.35,0,*6E
1513807308.86,50458,6.81,73404.8,-16.23,-18.35,-18.31,0,*6E
1513807310.1,50459,6.81,73402.3,-16.23,-18.45,-18.49,0,*67
1513807311.31,50460,6.81,73398.8,-16.21,-18.49,-18.49,0,*63
1513807312.56,50461,6.81,73396.0,-16.23,-18.49,-18.59,0,*61
1513807313.77,50462,6.81,73398.0,-16.21,-18.49,-18.49,0,*61
1513807315.01,50463,6.75,73398.0,-16.21,-18.59,-18.73,0,*68
1513807316.24,50464,6.81,73404.3,-16.23,-19.03,-19.07,0,*61
1513807317.51,50465,6.75,73392.5,-16.23,-19.81,-19.81,0,*64
1513807318.77,50466,6.75,73388.5,-16.21,-19.41,-19.41,0,*65
1513807320.04,50467,6.75,73390.5,-16.23,-19.03,-18.93,0,*6E
1513807321.34,50468,6.81,73392.0,-16.23,-19.23,-19.57,0,*6A
1513807322.6,50469,6.75,73388.0,-16.23,-19.85,-19.95,0,*69
1513807323.86,50470,6.75,73398.0,-16.21,-19.85,-19.85,0,*62
1513807325.12,50471,6.75,73400.3,-16.23,-19.99,-20.35,0,*6D
1513807326.39,50472,6.81,73406.8,-16.23,-20.19,-20.43,0,*6D
1513807327.67,50473,6.81,73406.0,-16.23,-20.15,-19.85,0,*60
1513807328.91,50474,6.75,73398.0,-16.23,-20.43,-19.99,0,*69
1513807330.2,50475,6.75,73396.8,-16.23,-20.49,-20.15,0,*6C
1513807331.49,50476,6.75,73400.8,-16.27,-20.53,-20.19,0,*6C
1513807332.75,50477,6.75,73402.3,-16.23,-20.35,-19.99,0,*6B
1513807334.03,50478,6.75,73402.0,-16.27,-20.35,-20.19,0,*62
1513807335.29,50479,6.75,73400.0,-16.27,-20.35,-20.05,0,*6E
1513807336.58,50480,6.75,73406.3,-16.23,-19.85,-19.65,0,*61
1513807337.82,50481,6.81,73406.8,-16.23,-19.13,-19.03,0,*6F
1513807339.06,50482,6.75,73402.8,-16.27,-18.83,-18.83,0,*69
1513807340.31,50483,6.75,73394.8,-16.27,-18.55,-18.79,0,*66
1513807341.58,50484,6.75,73388.8,-16.27,-18.35,-18.49,0,*64
1513807342.82,50485,6.81,73392.8,-16.23,-18.21,-18.49,0,*64
1513807344.08,50486,6.81,73398.5,-16.23,-18.35,-18.65,0,*6C
1513807345.32,50487,6.81,73402.3,-16.27,-18.41,-18.65,0,*6A
1513807346.56,50488,6.81,73410.3,-16.27,-18.21,-18.25,0,*67
1513807347.82,50489,6.75,73406.0,-16.27,-17.93,-18.07,0,*60
1513807349.07,50490,6.81,73406.3,-16.23,-17.83,-17.83,0,*6E
1513807350.34,50491,6.75,73402.8,-16.23,-17.83,-17.97,0,*6A
1513807351.63,50492,6.75,73400.0,-16.27,-18.01,-18.01,0,*68
1513807352.87,50493,6.81,73396.0,-16.27,-17.87,-18.17,0,*6F
1513807354.1,50494,6.81,73400.0,-16.23,-18.11,-18.17,0,*6C
1513807355.34,50495,6.81,73392.5,-16.27,-18.17,-18.21,0,*6A
1513807356.57,50496,6.81,73402.8,-16.23,-18.11,-18.17,0,*6E
1513807357.84,50497,6.81,73408.3,-16.23,-18.17,-18.01,0,*6E
1513807359.13,50498,6.75,73404.5,-16.23,-18.01,-18.01,0,*66
1513807360.4,50499,6.75,73400.5,-16.23,-18.01,-17.87,0,*66
1513807361.67,50500,6.81,73410.3,-16.23,-17.87,-17.97,0,*67
1513807362.94,50501,6.81,73404.0,-16.23,-17.83,-17.97,0,*62
1513807364.2,50502,6.81,73404.5,-16.27,-18.01,-18.21,0,*62
1513807365.41,50503,6.75,73406.8,-16.21,-18.21,-18.45,0,*65
1513807366.67,50504,6.81,73414.8,-16.21,-18.59,-18.93,0,*66
1513807367.93,50505,6.75,73412.0,-16.23,-18.65,-18.89,0,*61
1513807369.19,50506,6.75,73406.5,-16.27,-18.83,-18.93,0,*65
1513807370.45,50507,6.81,73414.5,-16.23,-18.73,-18.59,0,*69
1513807371.69,50508,6.81,73416.5,-16.23,-18.49,-18.45,0,*62
1513807372.93,50509,6.81,73412.5,-16.19,-18.59,-18.65,0,*69
1513807374.16,50510,6.75,73414.8,-16.21,-18.73,-18.89,0,*60
1513807375.4,50511,6.81,73422.3,-16.21,-18.93,-19.13,0,*6D
1513807376.61,50512,6.81,73416.3,-16.21,-19.13,-19.51,0,*61
1513807377.88,50513,6.75,73414.3,-16.21,-19.65,-19.81,0,*6C
1513807379.17,50514,6.75,73406.8,-16.23,-19.65,-19.57,0,*62
1513807380.4,50515,6.81,73408.0,-16.23,-19.03,-19.03,0,*62
1513807381.65,50516,6.81,73404.3,-16.27,-18.83,-18.69,0,*61
1513807382.93,50517,6.81,73410.0,-16.23,-18.93,-18.89,0,*6B
1513807384.22,50518,6.81,73406.3,-16.23,-18.89,-18.93,0,*64
1513807385.48,50519,6.75,73396.5,-16.23,-18.73,-18.89,0,*6B
1513807386.71,50520,6.75,73416.5,-16.23,-18.79,-18.79,0,*64
1513807387.96,50521,6.81,73412.5,-16.23,-18.89,-19.07,0,*62
1513807389.22,50522,6.75,73400.3,-16.23,-19.07,-19.23,0,*60
1513807390.46,50523,6.81,73400.0,-16.23,-18.79,-18.79,0,*67
1513807391.72,50524,6.75,73390.5,-16.23,-18.59,-18.45,0,*6D
1513807392.98,50525,6.81,73406.0,-16.23,-18.35,-18.45,0,*66
1513807394.25,50526,6.81,73410.3,-16.23,-18.59,-18.65,0,*6D
1513807395.51,50527,6.81,73414.8,-16.23,-18.93,-19.03,0,*6B
1513807396.74,50528,6.75,73396.8,-16.23,-19.03,-19.03,0,*6C
1513807397.95,50529,6.81,73398.5,-16.21,-19.13,-19.03,0,*6E
1513807399.19,50530,6.75,73406.5,-16.23,-18.79,-18.65,0,*68
1513807400.46,50531,6.75,73406.3,-16.23,-18.35,-18.49,0,*6F
1513807401.69,50532,6.81,73408.8,-16.23,-18.49,-18.65,0,*69
1513807402.93,50533,6.81,73410.5,-16.23,-18.45,-18.65,0,*64
1513807404.17,50534,6.81,73416.3,-16.23,-18.65,-18.79,0,*6C
1513807405.41,50535,6.81,73418.8,-16.23,-18.65,-18.65,0,*60
1513807406.64,50536,6.81,73412.5,-16.23,-18.45,-18.49,0,*6F
1513807407.91,50537,6.75,73412.5,-16.23,-18.21,-18.31,0,*63
1513807409.17,50538,6.75,73412.3,-16.23,-18.01,-18.17,0,*6A
1513807410.46,50539,6.81,73414.8,-16.23,-18.01,-18.01,0,*6C
1513807411.73,50540,6.75,73408.5,-16.21,-18.01,-17.97,0,*60
1513807412.97,50541,6.75,73412.0,-16.23,-17.83,-17.87,0,*67
1513807414.22,50542,6.81,73412.0,-16.23,-17.73,-17.83,0,*6F
1513807415.46,50543,6.81,73410.0,-16.23,-17.73,-17.87,0,*6A
1513807416.72,50544,6.81,73406.3,-16.23,-17.97,-18.17,0,*61
1513807417.93,50545,6.75,73396.5,-16.21,-18.11,-18.17,0,*63
1513807419.16,50546,6.75,73400.8,-16.21,-18.01,-18.17,0,*61
1513807420.39,50547,6.75,73404.8,-16.21,-18.11,-18.01,0,*66
1513807421.63,50548,6.81,73402.8,-16.21,-18.21,-18.35,0,*6D
1513807422.87,50549,6.75,73398.3,-16.21,-18.93,-19.37,0,*66
1513807424.11,50550,6.75,73396.8,-16.21,-19.37,-19.57,0,*67
1513807425.36,50551,6.75,73390.5,-16.21,-19.71,-19.57,0,*64
1513807426.66,50552,6.81,73388.8,-16.23,-19.57,-19.41,0,*66
1513807427.89,50553,6.81,73394.5,-16.23,-19.03,-18.79,0,*6C
1513807429.12,50554,6.81,73398.3,-16.21,-18.59,-18.45,0,*68
1513807430.34,50555,6.75,73394.5,-16.19,-18.11,-18.11,0,*6F
1513807431.56,50556,6.81,73396.8,-16.21,-17.83,-17.69,0,*63
1513807432.84,50557,6.81,73398.3,-16.23,-17.55,-17.55,0,*64
1513807434.1,50558,6.75,73394.8,-16.21,-17.55,-17.45,0,*68
1513807435.34,50559,6.81,73402.5,-16.21,-17.31,-17.41,0,*6F
1513807436.57,50560,6.81,73408.8,-16.21,-17.25,-17.31,0,*67
1513807437.8,50561,6.81,73412.3,-16.21,-17.41,-17.31,0,*64
1513807439.05,50562,6.75,73412.3,-16.19,-17.25,-17.31,0,*6E
1513807440.31,50563,6.75,73410.8,-16.21,-17.25,-17.41,0,*63
1513807441.55,50564,6.81,73406.8,-16.19,-17.31,-17.41,0,*6A
1513807442.8,50565,6.81,73408.3,-16.19,-17.31,-17.41,0,*6B
1513807444.07,50566,6.81,73406.3,-16.19,-17.25,-17.41,0,*6D
1513807445.34,50567,6.81,73406.3,-16.19,-17.17,-17.25,0,*6F
1513807446.61,50568,6.81,73404.0,-16.19,-17.11,-17.17,0,*67
1513807447.88,50569,6.81,73402.3,-16.19,-17.11,-17.17,0,*66
1513807449.15,50570,6.81,73408.5,-16.19,-17.11,-17.11,0,*68
1513807450.42,50571,6.75,73408.8,-16.19,-17.07,-17.17,0,*68
1513807451.69,50572,6.81,73404.0,-16.19,-17.11,-17.45,0,*6B
1513807452.96,50573,6.81,73400.0,-16.19,-17.55,-18.01,0,*65
1513807454.21,50574,6.81,73406.5,-16.19,-17.97,-18.45,0,*6C
1513807455.46,50575,6.75,73406.3,-16.19,-18.49,-18.93,0,*6A
1513807456.67,50576,6.81,73410.0,-16.15,-18.69,-18.99,0,*6D
1513807457.89,50577,6.81,73406.8,-16.15,-18.83,-19.17,0,*6F
1513807459.14,50578,6.75,73400.0,-16.17,-19.51,-19.91,0,*62
1513807460.4,50579,6.81,73404.8,-16.19,-19.81,-20.15,0,*66
1513807461.64,50580,6.75,73400.5,-16.19,-19.85,-19.99,0,*6A
1513807462.86,50581,6.75,73398.8,-16.19,-19.07,-19.13,0,*63
1513807464.13,50582,6.75,73400.3,-16.19,-19.13,-19.57,0,*65
1513807465.37,50583,6.81,73402.5,-16.21,-19.81,-20.15,0,*68
1513807466.63,50584,6.81,73394.5,-16.19,-19.81,-20.15,0,*64
1513807467.85,50585,6.75,73396.8,-16.19,-19.51,-19.71,0,*60
1513807469.14,50586,6.81,73402.8,-16.23,-19.41,-19.81,0,*64
1513807470.4,50587,6.81,73400.0,-16.21,-19.65,-19.85,0,*65
1513807471.62,50588,6.81,73404.3,-16.19,-20.09,-20.43,0,*61
1513807472.85,50589,6.81,73406.0,-16.21,-20.09,-20.35,0,*6A
1513807474.05,50590,6.75,73402.5,-16.21,-20.09,-19.99,0,*6E
1513807475.31,50591,6.75,73392.5,-16.21,-20.15,-20.19,0,*60
1513807476.52,50592,6.75,73404.0,-16.21,-19.95,-20.29,0,*62
1513807477.74,50593,6.81,73404.5,-16.21,-19.99,-20.29,0,*6F
1513807478.97,50594,6.75,73396.3,-16.21,-19.85,-20.29,0,*65
1513807480.21,50595,6.81,73402.3,-16.23,-20.09,-20.43,0,*64
1513807481.47,50596,6.75,73400.5,-16.23,-20.15,-20.43,0,*6A
1513807482.73,50597,6.81,73404.0,-16.23,-20.35,-20.73,0,*6A
1513807484.0,50598,6.75,73406.0,-16.23,-20.35,-20.63,0,*64
1513807485.26,50599,6.75,73404.8,-16.23,-20.35,-20.63,0,*65
1513807486.52,50600,6.81,73406.5,-16.23,-20.09,-20.49,0,*61
1513807487.79,50601,6.81,73410.8,-16.23,-19.85,-20.29,0,*68
1513807489.07,50602,6.81,73410.0,-16.23,-19.81,-20.19,0,*6C
1513807490.33,50603,6.81,73402.8,-16.27,-19.75,-20.35,0,*6C
1513807491.6,50604,6.75,73400.5,-16.27,-19.95,-20.35,0,*65
1513807492.84,50605,6.81,73404.0,-16.27,-19.91,-20.25,0,*61
1513807494.08,50606,6.81,73404.8,-16.27,-19.75,-20.05,0,*6A
1513807495.37,50607,6.75,73404.3,-16.27,-19.85,-20.35,0,*67
1513807496.63,50608,6.81,73410.3,-16.27,-20.05,-20.49,0,*61
1513807497.87,50609,6.75,73392.0,-16.29,-20.05,-20.53,0,*65
1513807499.11,50610,6.81,73406.8,-16.31,-20.25,-20.69,0,*6F
1513807500.38,50611,6.81,73398.5,-16.29,-20.19,-20.49,0,*6A
1513807501.62,50612,6.75,73396.8,-16.29,-19.91,-20.19,0,*66
1513807502.87,50613,6.81,73384.5,-16.31,-20.25,-20.43,0,*64
1513807504.11,50614,6.81,73380.5,-16.31,-19.91,-19.75,0,*69
1513807505.36,50615,6.75,73390.0,-16.31,-19.13,-19.17,0,*66
1513807506.63,50616,6.75,73394.0,-16.31,-19.03,-19.23,0,*63
1513807507.88,50617,6.81,73392.0,-16.29,-19.13,-19.41,0,*6E
1513807509.15,50618,6.75,73394.3,-16.27,-19.13,-19.27,0,*6F
1513807510.45,50619,6.75,73392.0,-16.27,-19.57,-19.85,0,*66
1513807511.72,50620,6.81,73388.8,-16.31,-19.95,-20.53,0,*64
1513807512.99,50621,6.75,73392.0,-16.29,-20.19,-20.53,0,*62
1513807514.26,50622,6.75,73388.8,-16.29,-20.19,-20.49,0,*6A
1513807515.5,50623,6.75,73392.0,-16.31,-20.25,-20.59,0,*6C
1513807516.75,50624,6.81,73396.0,-16.29,-20.19,-20.39,0,*6B
1513807517.99,50625,6.81,73402.5,-16.29,-20.19,-20.39,0,*6A
1513807519.26,50626,6.81,73396.8,-16.31,-20.19,-20.43,0,*6D
1513807520.5,50627,6.81,73394.3,-16.31,-20.09,-20.09,0,*63
1513807521.77,50628,6.81,73386.3,-16.31,-19.61,-19.51,0,*6F
1513807523.02,50629,6.75,73398.8,-16.31,-19.13,-19.13,0,*6D
1513807524.3,50630,6.75,73402.8,-16.31,-18.55,-18.59,0,*69
1513807525.54,50631,6.81,73402.5,-16.31,-18.25,-18.25,0,*64
1513807526.84,50632,6.81,73402.5,-16.31,-17.97,-17.97,0,*67
1513807528.1,50633,6.81,73398.8,-16.31,-17.63,-17.69,0,*6C
1513807529.39,50634,6.81,73404.0,-16.31,-17.55,-17.55,0,*61
1513807530.69,50635,6.81,73402.0,-16.31,-17.41,-17.41,0,*60
1513807531.95,50636,6.81,73384.0,-16.29,-17.45,-17.35,0,*6D
1513807533.19,50637,6.75,73380.5,-16.31,-17.49,-17.49,0,*62
1513807534.46,50638,6.81,73386.8,-16.31,-17.49,-17.41,0,*65
1513807535.73,50639,6.81,73386.3,-16.29,-17.45,-17.45,0,*65
1513807537.0,50640,6.81,73394.8,-16.29,-17.45,-17.45,0,*6B
1513807538.24,50641,6.75,73386.5,-16.29,-17.49,-17.59,0,*6B
1513807539.49,50642,6.81,73384.0,-16.29,-17.59,-17.87,0,*6A
1513807540.73,50643,6.81,73370.0,-16.29,-17.73,-18.01,0,*62
1513807541.94,50644,6.75,73382.0,-16.29,-17.73,-18.17,0,*62
1513807543.18,50645,6.75,73388.8,-16.27,-18.17,-18.69,0,*69
1513807544.44,50646,6.75,73398.0,-16.27,-18.83,-19.31,0,*6B
1513807545.71,50647,6.81,73398.3,-16.29,-19.31,-19.85,0,*63
1513807546.93,50648,6.81,73392.3,-16.29,-19.47,-19.75,0,*62
1513807548.22,50649,6.81,73394.5,-16.27,-19.61,-19.85,0,*66
1513807549.49,50650,6.81,73400.8,-16.27,-19.57,-19.47,0,*65
1513807550.75,50651,6.81,73392.0,-16.27,-18.93,-19.07,0,*69
1513807551.96,50652,6.75,73394.0,-16.29,-18.69,-19.07,0,*61
1513807553.17,50653,6.81,73404.8,-16.29,-18.69,-18.99,0,*66
1513807554.41,50654,6.81,73400.3,-16.27,-18.83,-18.99,0,*6B
1513807555.62,50655,6.81,73388.0,-16.29,-18.79,-18.83,0,*6A
1513807556.84,50656,6.81,73388.3,-16.29,-18.41,-18.49,0,*64
1513807558.05,50657,6.81,73398.8,-16.29,-18.41,-18.49,0,*65
1513807559.27,50658,6.81,73402.0,-16.29,-18.41,-18.49,0,*6A
1513807560.51,50659,6.75,73402.0,-16.29,-18.35,-18.69,0,*6A
1513807561.75,50660,6.81,73412.8,-16.27,-18.65,-18.83,0,*6F
1513807563.01,50661,6.75,73394.3,-16.27,-19.07,-19.41,0,*64
1513807564.25,50662,6.75,73390.3,-16.27,-19.47,-19.91,0,*6E
1513807565.52,50663,6.81,73392.3,-16.27,-19.47,-19.61,0,*60
1513807566.79,50664,6.81,73394.0,-16.27,-19.13,-19.31,0,*63
1513807568.01,50665,6.81,73394.0,-16.29,-18.79,-19.17,0,*65
1513807569.24,50666,6.81,73402.5,-16.27,-18.83,-19.07,0,*6C
1513807570.45,50667,6.75,73396.8,-16.29,-18.83,-19.07,0,*63
1513807571.69,50668,6.81,73406.5,-16.27,-18.69,-19.07,0,*66
1513807572.96,50669,6.75,73404.0,-16.23,-19.13,-19.81,0,*61
1513807574.2,50670,6.81,73410.5,-16.27,-19.75,-20.25,0,*69
1513807575.45,50671,6.75,73388.5,-16.29,-20.53,-20.63,0,*6A
1513807576.66,50672,6.81,73390.8,-16.29,-20.05,-19.91,0,*6D
1513807577.9,50673,6.81,73388.0,-16.29,-19.41,-19.13,0,*6C
1513807579.11,50674,6.81,73378.5,-16.29,-18.69,-18.41,0,*66
1513807580.32,50675,6.81,73376.5,-16.29,-18.25,-18.17,0,*6C
1513807581.57,50676,6.81,73392.3,-16.27,-18.07,-18.07,0,*60
1513807582.85,50677,6.81,73384.5,-16.27,-18.01,-17.93,0,*65
1513807584.14,50678,6.81,73380.0,-16.27,-17.79,-17.79,0,*6E
1513807585.4,50679,6.81,73380.0,-16.27,-17.73,-17.79,0,*65
1513807586.65,50680,6.75,73370.3,-16.23,-17.69,-17.83,0,*69
1513807587.93,50681,6.81,73376.0,-16.27,-17.79,-18.01,0,*68
1513807589.2,50682,6.75,73372.5,-16.27,-18.01,-18.07,0,*6D
1513807590.49,50683,6.81,73390.8,-16.27,-17.93,-17.93,0,*6A
1513807591.73,50684,6.75,73392.8,-16.23,-17.73,-17.83,0,*66
1513807593.0,50685,6.81,73380.5,-16.23,-17.59,-17.83,0,*6F
1513807594.28,50686,6.81,73392.5,-16.27,-17.79,-18.01,0,*6F
1513807595.55,50687,6.81,73396.0,-16.23,-17.97,-18.21,0,*68
1513807596.81,50688,6.81,73384.5,-16.23,-18.35,-18.49,0,*6E
1513807598.08,50689,6.81,73378.0,-16.23,-18.59,-18.65,0,*6B
1513807599.31,50690,6.81,73384.0,-16.23,-18.45,-18.65,0,*6E
1513807600.55,50691,6.81,73380.8,-16.23,-18.65,-18.65,0,*6D
1513807601.82,50692,6.81,73382.8,-16.23,-18.21,-18.35,0,*6B
1513807603.05,50693,6.75,73386.8,-16.23,-18.45,-18.79,0,*60
1513807604.28,50694,6.81,73378.0,-16.21,-18.45,-18.59,0,*67
1513807605.5,50695,6.81,73384.3,-16.19,-18.45,-18.65,0,*62
1513807606.74,50696,6.81,73390.8,-16.21,-18.31,-18.49,0,*67
1513807608.0,50697,6.81,73402.8,-16.23,-18.45,-18.93,0,*60
1513807609.29,50698,6.75,73398.8,-16.23,-18.89,-19.27,0,*61
1513807610.55,50699,6.81,73398.3,-16.21,-18.93,-19.27,0,*69
1513807611.79,50700,6.81,73396.3,-16.21,-18.79,-18.93,0,*62
1513807612.99,50701,6.81,73398.5,-16.21,-18.49,-18.45,0,*6B
1513807614.23,50702,6.81,73396.5,-16.21,-18.11,-18.35,0,*62
1513807615.49,50703,6.75,73388.8,-16.21,-18.01,-18.31,0,*66
1513807616.77,50704,6.81,73398.0,-16.19,-18.01,-18.31,0,*6A
1513807617.98,50705,6.81,73404.3,-16.21,-18.11,-18.45,0,*62
1513807619.22,50706,6.81,73400.8,-16.21,-18.31,-18.65,0,*61
1513807620.46,50707,6.81,73406.3,-16.21,-18.31,-18.73,0,*67
1513807621.67,50708,6.81,73392.5,-16.19,-18.65,-19.03,0,*64
1513807622.92,50709,6.75,73390.8,-16.19,-19.07,-19.41,0,*66
1513807624.16,50710,6.81,73396.5,-16.21,-19.03,-19.27,0,*61
1513807625.39,50711,6.75,73388.5,-16.21,-19.23,-19.03,0,*64
1513807626.63,50712,6.81,73386.0,-16.21,-18.35,-18.11,0,*63
1513807627.87,50713,6.81,73386.3,-16.21,-18.01,-17.87,0,*65
1513807629.08,50714,6.81,73390.3,-16.21,-17.83,-17.83,0,*63
1513807630.35,50715,6.81,73396.0,-16.21,-17.97,-17.97,0,*62
1513807631.6,50716,6.81,73390.0,-16.19,-18.31,-18.49,0,*65
1513807632.82,50717,6.75,73374.3,-16.21,-18.89,-19.07,0,*67
1513807634.09,50718,6.81,73376.0,-16.19,-18.89,-18.89,0,*64
1513807635.31,50719,6.81,73394.3,-16.19,-18.49,-18.45,0,*69
1513807636.53,50720,6.75,73394.0,-16.19,-18.17,-18.11,0,*69
1513807637.76,50721,6.75,73382.0,-16.19,-17.87,-17.83,0,*6A
1513807639.03,50722,6.75,73376.3,-16.21,-17.97,-17.97,0,*66
1513807640.3,50723,6.81,73376.0,-16.17,-17.93,-18.07,0,*60
1513807641.55,50724,6.81,73382.5,-16.19,-17.87,-17.97,0,*6A
1513807642.83,50725,6.81,73388.3,-16.19,-17.97,-18.31,0,*69
1513807644.07,50726,6.81,73380.3,-16.19,-18.59,-19.03,0,*67
1513807645.28,50727,6.75,73386.5,-16.19,-18.79,-19.07,0,*60
1513807646.52,50728,6.81,73392.8,-16.19,-18.93,-19.07,0,*6B
1513807647.74,50729,6.81,73388.5,-16.19,-18.79,-19.13,0,*6B
1513807649.0,50730,6.81,73394.0,-16.19,-18.93,-19.37,0,*61
1513807650.28,50731,6.81,73388.8,-16.19,-19.23,-19.57,0,*6C
1513807651.52,50732,6.81,73388.5,-16.17,-18.99,-18.99,0,*62
1513807652.78,50733,6.81,73392.5,-16.19,-18.59,-18.89,0,*60
1513807654.05,50734,6.75,73394.8,-16.19,-18.59,-18.93,0,*6C
1513807655.27,50735,6.81,73392.3,-16.19,-18.73,-19.13,0,*6C
1513807656.51,50736,6.81,73402.0,-16.17,-18.73,-18.99,0,*62
1513807657.78,50737,6.75,73392.8,-16.19,-18.59,-18.93,0,*6F
1513807659.04,50738,6.81,73396.8,-16.19,-18.59,-18.89,0,*6B
1513807660.28,50739,6.81,73402.3,-16.19,-18.59,-18.79,0,*65
1513807661.54,50740,6.81,73396.0,-16.19,-18.35,-18.59,0,*63
1513807662.8,50741,6.81,73400.8,-16.19,-18.31,-18.45,0,*6B
1513807664.03,50742,6.81,73398.8,-16.17,-18.11,-18.25,0,*62
1513807665.3,50743,6.81,73406.8,-16.17,-17.97,-18.25,0,*62
1513807666.57,50744,6.81,73402.8,-16.17,-18.07,-18.31,0,*66
1513807667.79,50745,6.81,73404.0,-16.15,-18.17,-18.41,0,*63
1513807669.06,50746,6.81,73406.3,-16.17,-18.11,-18.31,0,*63
1513807670.33,50747,6.75,73394.5,-16.17,-18.11,-18.31,0,*62
1513807671.57,50748,6.81,73398.3,-16.17,-18.07,-18.25,0,*6F
1513807672.82,50749,6.81,73398.0,-16.15,-17.97,-18.11,0,*6D
1513807674.09,50750,6.81,73402.8,-16.17,-17.93,-18.07,0,*64
1513807675.36,50751,6.81,73404.5,-16.17,-17.83,-17.93,0,*66
1513807676.64,50752,6.75,73392.0,-16.17,-17.55,-17.83,0,*6F
1513807677.85,50753,6.81,73398.3,-16.15,-17.49,-17.69,0,*65
1513807679.12,50754,6.81,73396.3,-16.15,-17.55,-17.79,0,*6E
1513807680.39,50755,6.81,73398.8,-16.17,-17.55,-17.83,0,*68
1513807681.68,50756,6.81,73400.0,-16.17,-17.63,-17.79,0,*6B
1513807682.92,50757,6.81,73402.3,-16.15,-17.63,-17.69,0,*69
1513807684.21,50758,6.81,73400.3,-16.17,-17.55,-17.79,0,*60
1513807685.48,50759,6.81,73406.5,-16.17,-17.55,-17.69,0,*60
1513807686.72,50760,6.81,73400.3,-16.13,-17.49,-17.73,0,*68
1513807687.97,50761,6.75,73396.8,-16.15,-17.55,-17.83,0,*6D
1513807689.24,50762,6.81,73398.8,-16.15,-17.63,-17.97,0,*6E
1513807690.47,50763,6.81,73402.0,-16.15,-17.79,-18.25,0,*62
1513807691.68,50764,6.75,73400.8,-16.15,-17.83,-18.41,0,*62
1513807692.9,50765,6.81,73404.5,-16.15,-18.07,-18.45,0,*64
1513807694.14,50766,6.81,73404.3,-16.15,-18.17,-18.55,0,*67
1513807695.38,50767,6.81,73400.5,-16.13,-18.11,-18.49,0,*6B
1513807696.61,50768,6.81,73398.8,-16.15,-18.25,-18.59,0,*64
1513807697.85,50769,6.81,73400.3,-16.15,-18.31,-18.83,0,*67
1513807699.09,50770,6.75,73390.8,-16.15,-18.45,-18.89,0,*66
1513807700.33,50771,6.75,73394.3,-16.15,-18.45,-18.89,0,*67